Year,Month,Day,Hour,Minute,Value (Times are PST for temperature in C)
2018,08,09,00,00,25.60
2018,08,09,00,01,25.60
2018,08,09,00,02,25.60
2018,08,09,00,03,25.50
2018,08,09,00,04,25.50
2018,08,09,00,05,25.50
2018,08,09,00,06,25.50
2018,08,09,00,07,25.50
2018,08,09,00,08,25.50
2018,08,09,00,09,25.50
2018,08,09,00,10,25.60
2018,08,09,00,11,25.60
2018,08,09,00,12,25.60
2018,08,09,00,13,25.70
2018,08,09,00,14,25.70
2018,08,09,00,15,25.70
2018,08,09,00,16,25.70
2018,08,09,00,17,25.70
2018,08,09,00,18,25.70
2018,08,09,00,19,25.70
2018,08,09,00,20,25.70
2018,08,09,00,21,25.70
2018,08,09,00,22,25.70
2018,08,09,00,23,25.70
2018,08,09,00,24,25.70
2018,08,09,00,25,25.80
2018,08,09,00,26,25.80
2018,08,09,00,27,25.90
2018,08,09,00,28,25.90
2018,08,09,00,29,25.90
2018,08,09,00,30,26.00
2018,08,09,00,31,26.10
2018,08,09,00,32,26.10
2018,08,09,00,33,26.20
2018,08,09,00,34,26.10
2018,08,09,00,35,26.10
2018,08,09,00,36,26.00
2018,08,09,00,37,25.90
2018,08,09,00,38,25.90
2018,08,09,00,39,25.70
2018,08,09,00,40,25.60
2018,08,09,00,41,25.50
2018,08,09,00,42,25.50
2018,08,09,00,43,25.40
2018,08,09,00,44,25.40
2018,08,09,00,45,25.30
2018,08,09,00,46,25.30
2018,08,09,00,47,25.20
2018,08,09,00,48,25.20
2018,08,09,00,49,25.10
2018,08,09,00,50,25.00
2018,08,09,00,51,24.90
2018,08,09,00,52,24.80
2018,08,09,00,53,24.70
2018,08,09,00,54,24.60
2018,08,09,00,55,24.50
2018,08,09,00,56,24.50
2018,08,09,00,57,24.50
2018,08,09,00,58,24.50
2018,08,09,00,59,24.50
2018,08,09,01,00,24.50
2018,08,09,01,01,24.50
2018,08,09,01,02,24.50
2018,08,09,01,03,24.50
2018,08,09,01,04,24.50
2018,08,09,01,05,24.40
2018,08,09,01,06,24.40
2018,08,09,01,07,24.40
2018,08,09,01,08,24.40
2018,08,09,01,09,24.30
2018,08,09,01,10,24.30
2018,08,09,01,11,24.20
2018,08,09,01,12,24.20
2018,08,09,01,13,24.10
2018,08,09,01,14,24.10
2018,08,09,01,15,24.00
2018,08,09,01,16,23.90
2018,08,09,01,17,23.80
2018,08,09,01,18,23.70
2018,08,09,01,19,23.60
2018,08,09,01,20,23.50
2018,08,09,01,21,23.30
2018,08,09,01,22,23.20
2018,08,09,01,23,23.10
2018,08,09,01,24,23.00
2018,08,09,01,25,22.80
2018,08,09,01,26,22.80
2018,08,09,01,27,22.70
2018,08,09,01,28,22.60
2018,08,09,01,29,22.60
2018,08,09,01,30,22.50
2018,08,09,01,31,22.40
2018,08,09,01,32,22.40
2018,08,09,01,33,22.40
2018,08,09,01,34,22.40
2018,08,09,01,35,22.40
2018,08,09,01,36,22.40
2018,08,09,01,37,22.30
2018,08,09,01,38,22.30
2018,08,09,01,39,22.30
2018,08,09,01,40,22.30
2018,08,09,01,41,22.30
2018,08,09,01,42,22.40
2018,08,09,01,43,22.40
2018,08,09,01,44,22.50
2018,08,09,01,45,22.60
2018,08,09,01,46,22.60
2018,08,09,01,47,22.70
2018,08,09,01,48,22.70
2018,08,09,01,49,22.80
2018,08,09,01,50,23.00
2018,08,09,01,51,23.10
2018,08,09,01,52,23.20
2018,08,09,01,53,23.30
2018,08,09,01,54,23.40
2018,08,09,01,55,23.40
2018,08,09,01,56,23.50
2018,08,09,01,57,23.50
2018,08,09,01,58,23.50
2018,08,09,01,59,23.50
2018,08,09,02,00,23.50
2018,08,09,02,01,23.50
2018,08,09,02,02,23.50
2018,08,09,02,03,23.50
2018,08,09,02,04,23.50
2018,08,09,02,05,23.50
2018,08,09,02,06,23.40
2018,08,09,02,07,23.40
2018,08,09,02,08,23.40
2018,08,09,02,09,23.50
2018,08,09,02,10,23.50
2018,08,09,02,11,23.60
2018,08,09,02,12,23.80
2018,08,09,02,13,23.90
2018,08,09,02,14,24.10
2018,08,09,02,15,24.20
2018,08,09,02,16,24.30
2018,08,09,02,17,24.40
2018,08,09,02,18,24.40
2018,08,09,02,19,24.40
2018,08,09,02,20,24.40
2018,08,09,02,21,24.50
2018,08,09,02,22,24.50
2018,08,09,02,23,24.60
2018,08,09,02,24,24.60
2018,08,09,02,25,24.60
2018,08,09,02,26,24.60
2018,08,09,02,27,24.60
2018,08,09,02,28,24.50
2018,08,09,02,29,24.50
2018,08,09,02,30,24.40
2018,08,09,02,31,24.40
2018,08,09,02,32,24.30
2018,08,09,02,33,24.20
2018,08,09,02,34,24.10
2018,08,09,02,35,24.00
2018,08,09,02,36,23.80
2018,08,09,02,37,23.80
2018,08,09,02,38,23.70
2018,08,09,02,39,23.70
2018,08,09,02,40,23.70
2018,08,09,02,41,23.70
2018,08,09,02,42,23.60
2018,08,09,02,43,23.60
2018,08,09,02,44,23.60
2018,08,09,02,45,23.60
2018,08,09,02,46,23.60
2018,08,09,02,47,23.60
2018,08,09,02,48,23.60
2018,08,09,02,49,23.60
2018,08,09,02,50,23.60
2018,08,09,02,51,23.60
2018,08,09,02,52,23.60
2018,08,09,02,53,23.60
2018,08,09,02,54,23.60
2018,08,09,02,55,23.60
2018,08,09,02,56,23.60
2018,08,09,02,57,23.60
2018,08,09,02,58,23.70
2018,08,09,02,59,23.70
2018,08,09,03,00,23.70
2018,08,09,03,01,23.80
2018,08,09,03,02,23.80
2018,08,09,03,03,23.80
2018,08,09,03,04,23.80
2018,08,09,03,05,23.80
2018,08,09,03,06,23.70
2018,08,09,03,07,23.70
2018,08,09,03,08,23.60
2018,08,09,03,09,23.60
2018,08,09,03,10,23.50
2018,08,09,03,11,23.50
2018,08,09,03,12,23.40
2018,08,09,03,13,23.40
2018,08,09,03,14,23.40
2018,08,09,03,15,23.40
2018,08,09,03,16,23.40
2018,08,09,03,17,23.30
2018,08,09,03,18,23.30
2018,08,09,03,19,23.30
2018,08,09,03,20,23.20
2018,08,09,03,21,23.20
2018,08,09,03,22,23.20
2018,08,09,03,23,23.10
2018,08,09,03,24,23.10
2018,08,09,03,25,23.10
2018,08,09,03,26,23.10
2018,08,09,03,27,23.00
2018,08,09,03,28,23.00
2018,08,09,03,29,22.90
2018,08,09,03,30,22.90
2018,08,09,03,31,22.90
2018,08,09,03,32,22.90
2018,08,09,03,33,22.90
2018,08,09,03,34,22.80
2018,08,09,03,35,22.80
2018,08,09,03,36,22.80
2018,08,09,03,37,22.80
2018,08,09,03,38,22.80
2018,08,09,03,39,22.80
2018,08,09,03,40,22.80
2018,08,09,03,41,22.70
2018,08,09,03,42,22.70
2018,08,09,03,43,22.70
2018,08,09,03,44,22.60
2018,08,09,03,45,22.60
2018,08,09,03,46,22.60
2018,08,09,03,47,22.60
2018,08,09,03,48,22.60
2018,08,09,03,49,22.60
2018,08,09,03,50,22.50
2018,08,09,03,51,22.50
2018,08,09,03,52,22.50
2018,08,09,03,53,22.50
2018,08,09,03,54,22.50
2018,08,09,03,55,22.50
2018,08,09,03,56,22.50
2018,08,09,03,57,22.50
2018,08,09,03,58,22.40
2018,08,09,03,59,22.40
2018,08,09,04,00,22.40
2018,08,09,04,01,22.40
2018,08,09,04,02,22.40
2018,08,09,04,03,22.40
2018,08,09,04,04,22.30
2018,08,09,04,05,22.30
2018,08,09,04,06,22.30
2018,08,09,04,07,22.30
2018,08,09,04,08,22.30
2018,08,09,04,09,22.30
2018,08,09,04,10,22.30
2018,08,09,04,11,22.20
2018,08,09,04,12,22.20
2018,08,09,04,13,22.20
2018,08,09,04,14,22.20
2018,08,09,04,15,22.20
2018,08,09,04,16,22.10
2018,08,09,04,17,22.20
2018,08,09,04,18,22.20
2018,08,09,04,19,22.20
2018,08,09,04,20,22.20
2018,08,09,04,21,22.20
2018,08,09,04,22,22.20
2018,08,09,04,23,22.30
2018,08,09,04,24,22.30
2018,08,09,04,25,22.30
2018,08,09,04,26,22.30
2018,08,09,04,27,22.40
2018,08,09,04,28,22.40
2018,08,09,04,29,22.40
2018,08,09,04,30,22.40
2018,08,09,04,31,22.40
2018,08,09,04,32,22.40
2018,08,09,04,33,22.40
2018,08,09,04,34,22.40
2018,08,09,04,35,22.40
2018,08,09,04,36,22.40
2018,08,09,04,37,22.40
2018,08,09,04,38,22.40
2018,08,09,04,39,22.30
2018,08,09,04,40,22.30
2018,08,09,04,41,22.30
2018,08,09,04,42,22.30
2018,08,09,04,43,22.30
2018,08,09,04,44,22.30
2018,08,09,04,45,22.30
2018,08,09,04,46,22.20
2018,08,09,04,47,22.20
2018,08,09,04,48,22.20
2018,08,09,04,49,22.10
2018,08,09,04,50,22.00
2018,08,09,04,51,22.00
2018,08,09,04,52,21.90
2018,08,09,04,53,21.90
2018,08,09,04,54,21.90
2018,08,09,04,55,21.90
2018,08,09,04,56,21.90
2018,08,09,04,57,21.90
2018,08,09,04,58,21.90
2018,08,09,04,59,21.90
2018,08,09,05,00,21.80
2018,08,09,05,01,21.80
2018,08,09,05,02,21.80
2018,08,09,05,03,21.80
2018,08,09,05,04,21.70
2018,08,09,05,05,21.70
2018,08,09,05,06,21.70
2018,08,09,05,07,21.60
2018,08,09,05,08,21.60
2018,08,09,05,09,21.60
2018,08,09,05,10,21.60
2018,08,09,05,11,21.60
2018,08,09,05,12,21.60
2018,08,09,05,13,21.60
2018,08,09,05,14,21.60
2018,08,09,05,15,21.60
2018,08,09,05,16,21.60
2018,08,09,05,17,21.60
2018,08,09,05,18,21.70
2018,08,09,05,19,21.70
2018,08,09,05,20,21.70
2018,08,09,05,21,21.70
2018,08,09,05,22,21.80
2018,08,09,05,23,21.80
2018,08,09,05,24,21.80
2018,08,09,05,25,21.80
2018,08,09,05,26,21.80
2018,08,09,05,27,21.80
2018,08,09,05,28,21.80
2018,08,09,05,29,21.80
2018,08,09,05,30,21.80
2018,08,09,05,31,21.80
2018,08,09,05,32,21.80
2018,08,09,05,33,21.80
2018,08,09,05,34,21.80
2018,08,09,05,35,21.80
2018,08,09,05,36,21.90
2018,08,09,05,37,21.90
2018,08,09,05,38,22.00
2018,08,09,05,39,22.00
2018,08,09,05,40,22.10
2018,08,09,05,41,22.10
2018,08,09,05,42,22.20
2018,08,09,05,43,22.20
2018,08,09,05,44,22.20
2018,08,09,05,45,22.20
2018,08,09,05,46,22.30
2018,08,09,05,47,22.30
2018,08,09,05,48,22.30
2018,08,09,05,49,22.20
2018,08,09,05,50,22.20
2018,08,09,05,51,22.20
2018,08,09,05,52,22.10
2018,08,09,05,53,22.10
2018,08,09,05,54,22.00
2018,08,09,05,55,21.90
2018,08,09,05,56,21.90
2018,08,09,05,57,21.90
2018,08,09,05,58,21.90
2018,08,09,05,59,21.90
2018,08,09,06,00,21.80
2018,08,09,06,01,21.80
2018,08,09,06,02,21.80
2018,08,09,06,03,21.80
2018,08,09,06,04,21.80
2018,08,09,06,05,21.80
2018,08,09,06,06,21.80
2018,08,09,06,07,21.80
2018,08,09,06,08,21.80
2018,08,09,06,09,21.80
2018,08,09,06,10,21.80
2018,08,09,06,11,21.80
2018,08,09,06,12,21.80
2018,08,09,06,13,21.80
2018,08,09,06,14,21.80
2018,08,09,06,15,21.70
2018,08,09,06,16,21.70
2018,08,09,06,17,21.60
2018,08,09,06,18,21.50
2018,08,09,06,19,21.40
2018,08,09,06,20,21.30
2018,08,09,06,21,21.10
2018,08,09,06,22,21.00
2018,08,09,06,23,20.80
2018,08,09,06,24,20.80
2018,08,09,06,25,20.70
2018,08,09,06,26,20.70
2018,08,09,06,27,20.70
2018,08,09,06,28,20.80
2018,08,09,06,29,20.80
2018,08,09,06,30,20.90
2018,08,09,06,31,21.00
2018,08,09,06,32,21.10
2018,08,09,06,33,21.20
2018,08,09,06,34,21.30
2018,08,09,06,35,21.40
2018,08,09,06,36,21.50
2018,08,09,06,37,21.50
2018,08,09,06,38,21.60
2018,08,09,06,39,21.60
2018,08,09,06,40,21.60
2018,08,09,06,41,21.60
2018,08,09,06,42,21.60
2018,08,09,06,43,21.50
2018,08,09,06,44,21.50
2018,08,09,06,45,21.40
2018,08,09,06,46,21.30
2018,08,09,06,47,21.30
2018,08,09,06,48,21.20
2018,08,09,06,49,21.20
2018,08,09,06,50,21.10
2018,08,09,06,51,21.10
2018,08,09,06,52,21.00
2018,08,09,06,53,21.00
2018,08,09,06,54,20.90
2018,08,09,06,55,20.90
2018,08,09,06,56,20.90
2018,08,09,06,57,20.90
2018,08,09,06,58,20.90
2018,08,09,06,59,20.90
2018,08,09,07,00,20.90
2018,08,09,07,01,20.90
2018,08,09,07,02,21.00
2018,08,09,07,03,21.00
2018,08,09,07,04,21.00
2018,08,09,07,05,21.00
2018,08,09,07,06,20.90
2018,08,09,07,07,20.90
2018,08,09,07,08,20.90
2018,08,09,07,09,20.80
2018,08,09,07,10,20.80
2018,08,09,07,11,20.80
2018,08,09,07,12,20.80
2018,08,09,07,13,20.80
2018,08,09,07,14,20.80
2018,08,09,07,15,20.90
2018,08,09,07,16,20.90
2018,08,09,07,17,21.00
2018,08,09,07,18,21.10
2018,08,09,07,19,21.10
2018,08,09,07,20,21.10
2018,08,09,07,21,21.20
2018,08,09,07,22,21.20
2018,08,09,07,23,21.30
2018,08,09,07,24,21.40
2018,08,09,07,25,21.50
2018,08,09,07,26,21.70
2018,08,09,07,27,21.80
2018,08,09,07,28,21.90
2018,08,09,07,29,22.00
2018,08,09,07,30,22.10
2018,08,09,07,31,22.20
2018,08,09,07,32,22.40
2018,08,09,07,33,22.50
2018,08,09,07,34,22.70
2018,08,09,07,35,22.80
2018,08,09,07,36,22.80
2018,08,09,07,37,22.90
2018,08,09,07,38,23.00
2018,08,09,07,39,23.00
2018,08,09,07,40,23.10
2018,08,09,07,41,23.10
2018,08,09,07,42,23.10
2018,08,09,07,43,23.10
2018,08,09,07,44,23.00
2018,08,09,07,45,23.00
2018,08,09,07,46,23.10
2018,08,09,07,47,23.10
2018,08,09,07,48,23.10
2018,08,09,07,49,23.20
2018,08,09,07,50,23.30
2018,08,09,07,51,23.40
2018,08,09,07,52,23.50
2018,08,09,07,53,23.70
2018,08,09,07,54,23.80
2018,08,09,07,55,23.90
2018,08,09,07,56,24.00
2018,08,09,07,57,24.20
2018,08,09,07,58,24.30
2018,08,09,07,59,24.40
2018,08,09,08,00,24.60
2018,08,09,08,01,24.70
2018,08,09,08,02,24.80
2018,08,09,08,03,24.90
2018,08,09,08,04,25.10
2018,08,09,08,05,25.10
2018,08,09,08,06,25.20
2018,08,09,08,07,25.20
2018,08,09,08,08,25.20
2018,08,09,08,09,25.20
2018,08,09,08,10,25.20
2018,08,09,08,11,25.10
2018,08,09,08,12,25.00
2018,08,09,08,13,24.90
2018,08,09,08,14,24.80
2018,08,09,08,15,24.70
2018,08,09,08,16,24.70
2018,08,09,08,17,24.60
2018,08,09,08,18,24.50
2018,08,09,08,19,24.50
2018,08,09,08,20,24.50
2018,08,09,08,21,24.40
2018,08,09,08,22,24.40
2018,08,09,08,23,24.40
2018,08,09,08,24,24.40
2018,08,09,08,25,24.40
2018,08,09,08,26,24.40
2018,08,09,08,27,24.40
2018,08,09,08,28,24.30
2018,08,09,08,29,24.20
2018,08,09,08,30,24.20
2018,08,09,08,31,24.10
2018,08,09,08,32,24.10
2018,08,09,08,33,24.00
2018,08,09,08,34,24.00
2018,08,09,08,35,23.90
2018,08,09,08,36,23.80
2018,08,09,08,37,23.80
2018,08,09,08,38,23.80
2018,08,09,08,39,23.70
2018,08,09,08,40,23.60
2018,08,09,08,41,23.60
2018,08,09,08,42,23.60
2018,08,09,08,43,23.50
2018,08,09,08,44,23.40
2018,08,09,08,45,23.30
2018,08,09,08,46,23.20
2018,08,09,08,47,23.20
2018,08,09,08,48,23.20
2018,08,09,08,49,23.20
2018,08,09,08,50,23.30
2018,08,09,08,51,23.30
2018,08,09,08,52,23.30
2018,08,09,08,53,23.30
2018,08,09,08,54,23.40
2018,08,09,08,55,23.40
2018,08,09,08,56,23.40
2018,08,09,08,57,23.40
2018,08,09,08,58,23.40
2018,08,09,08,59,23.50
2018,08,09,09,00,23.50
2018,08,09,09,01,23.60
2018,08,09,09,02,23.60
2018,08,09,09,03,23.50
2018,08,09,09,04,23.50
2018,08,09,09,05,23.40
2018,08,09,09,06,23.30
2018,08,09,09,07,23.30
2018,08,09,09,08,23.20
2018,08,09,09,09,23.20
2018,08,09,09,10,23.20
2018,08,09,09,11,23.20
2018,08,09,09,12,23.20
2018,08,09,09,13,23.20
2018,08,09,09,14,23.20
2018,08,09,09,15,23.30
2018,08,09,09,16,23.30
2018,08,09,09,17,23.30
2018,08,09,09,18,23.40
2018,08,09,09,19,23.40
2018,08,09,09,20,23.40
2018,08,09,09,21,23.40
2018,08,09,09,22,23.40
2018,08,09,09,23,23.50
2018,08,09,09,24,23.60
2018,08,09,09,25,23.60
2018,08,09,09,26,23.70
2018,08,09,09,27,23.70
2018,08,09,09,28,23.70
2018,08,09,09,29,23.70
2018,08,09,09,30,23.70
2018,08,09,09,31,23.70
2018,08,09,09,32,23.80
2018,08,09,09,33,23.80
2018,08,09,09,34,23.80
2018,08,09,09,35,23.80
2018,08,09,09,36,23.70
2018,08,09,09,37,23.70
2018,08,09,09,38,23.60
2018,08,09,09,39,23.60
2018,08,09,09,40,23.50
2018,08,09,09,41,23.50
2018,08,09,09,42,23.40
2018,08,09,09,43,23.40
2018,08,09,09,44,23.40
2018,08,09,09,45,23.40
2018,08,09,09,46,23.40
2018,08,09,09,47,23.30
2018,08,09,09,48,23.30
2018,08,09,09,49,23.30
2018,08,09,09,50,23.30
2018,08,09,09,51,23.30
2018,08,09,09,52,23.30
2018,08,09,09,53,23.30
2018,08,09,09,54,23.30
2018,08,09,09,55,23.30
2018,08,09,09,56,23.40
2018,08,09,09,57,23.50
2018,08,09,09,58,23.50
2018,08,09,09,59,23.60
2018,08,09,10,00,23.60
2018,08,09,10,01,23.60
2018,08,09,10,02,23.60
2018,08,09,10,03,23.60
2018,08,09,10,04,23.50
2018,08,09,10,05,23.50
2018,08,09,10,06,23.40
2018,08,09,10,07,23.40
2018,08,09,10,08,23.40
2018,08,09,10,09,23.40
2018,08,09,10,10,23.30
2018,08,09,10,11,23.30
2018,08,09,10,12,23.30
2018,08,09,10,13,23.30
2018,08,09,10,14,23.30
2018,08,09,10,15,23.40
2018,08,09,10,16,23.40
2018,08,09,10,17,23.50
2018,08,09,10,18,23.50
2018,08,09,10,19,23.50
2018,08,09,10,20,23.40
2018,08,09,10,21,23.40
2018,08,09,10,22,23.40
2018,08,09,10,23,23.30
2018,08,09,10,24,23.30
2018,08,09,10,25,23.40
2018,08,09,10,26,23.40
2018,08,09,10,27,23.40
2018,08,09,10,28,23.40
2018,08,09,10,29,23.40
2018,08,09,10,30,23.40
2018,08,09,10,31,23.40
2018,08,09,10,32,23.40
2018,08,09,10,33,23.40
2018,08,09,10,34,23.50
2018,08,09,10,35,23.60
2018,08,09,10,36,23.60
2018,08,09,10,37,23.70
2018,08,09,10,38,23.70
2018,08,09,10,39,23.70
2018,08,09,10,40,23.80
2018,08,09,10,41,23.90
2018,08,09,10,42,24.00
2018,08,09,10,43,24.00
2018,08,09,10,44,24.00
2018,08,09,10,45,24.00
2018,08,09,10,46,23.90
2018,08,09,10,47,23.80
2018,08,09,10,48,23.80
2018,08,09,10,49,23.80
2018,08,09,10,50,23.80
2018,08,09,10,51,23.70
2018,08,09,10,52,23.60
2018,08,09,10,53,23.50
2018,08,09,10,54,23.50
2018,08,09,10,55,23.50
2018,08,09,10,56,23.60
2018,08,09,10,57,23.70
2018,08,09,10,58,23.60
2018,08,09,10,59,23.40
2018,08,09,11,00,23.30
2018,08,09,11,01,23.20
2018,08,09,11,02,23.20
2018,08,09,11,03,23.10
2018,08,09,11,04,23.10
2018,08,09,11,05,23.10
2018,08,09,11,06,23.10
2018,08,09,11,07,23.10
2018,08,09,11,08,23.10
2018,08,09,11,09,23.20
2018,08,09,11,10,23.20
2018,08,09,11,11,23.20
2018,08,09,11,12,23.20
2018,08,09,11,13,23.30
2018,08,09,11,14,23.20
2018,08,09,11,15,23.20
2018,08,09,11,16,23.30
2018,08,09,11,17,23.40
2018,08,09,11,18,23.40
2018,08,09,11,19,23.30
2018,08,09,11,20,23.30
2018,08,09,11,21,23.30
2018,08,09,11,22,23.30
2018,08,09,11,23,23.30
2018,08,09,11,24,23.20
2018,08,09,11,25,23.20
2018,08,09,11,26,23.20
2018,08,09,11,27,23.10
2018,08,09,11,28,23.10
2018,08,09,11,29,23.20
2018,08,09,11,30,23.10
2018,08,09,11,31,23.10
2018,08,09,11,32,23.20
2018,08,09,11,33,23.20
2018,08,09,11,34,23.30
2018,08,09,11,35,23.30
2018,08,09,11,36,23.30
2018,08,09,11,37,23.20
2018,08,09,11,38,23.20
2018,08,09,11,39,23.20
2018,08,09,11,40,23.20
2018,08,09,11,41,23.20
2018,08,09,11,42,23.20
2018,08,09,11,43,23.10
2018,08,09,11,44,23.10
2018,08,09,11,45,23.10
2018,08,09,11,46,23.10
2018,08,09,11,47,23.10
2018,08,09,11,48,23.10
2018,08,09,11,49,23.10
2018,08,09,11,50,23.20
2018,08,09,11,51,23.20
2018,08,09,11,52,23.30
2018,08,09,11,53,23.20
2018,08,09,11,54,23.20
2018,08,09,11,55,23.20
2018,08,09,11,56,23.10
2018,08,09,11,57,23.10
2018,08,09,11,58,23.10
2018,08,09,11,59,23.10
2018,08,09,12,00,23.10
2018,08,09,12,01,23.10
2018,08,09,12,02,23.10
2018,08,09,12,03,23.10
2018,08,09,12,04,23.00
2018,08,09,12,05,23.00
2018,08,09,12,06,23.10
2018,08,09,12,07,23.10
2018,08,09,12,08,23.10
2018,08,09,12,09,23.20
2018,08,09,12,10,23.20
2018,08,09,12,11,23.20
2018,08,09,12,12,23.20
2018,08,09,12,13,23.10
2018,08,09,12,14,23.20
2018,08,09,12,15,23.20
2018,08,09,12,16,23.20
2018,08,09,12,17,23.20
2018,08,09,12,18,23.20
2018,08,09,12,19,23.30
2018,08,09,12,20,23.30
2018,08,09,12,21,23.30
2018,08,09,12,22,23.40
2018,08,09,12,23,23.40
2018,08,09,12,24,23.40
2018,08,09,12,25,23.40
2018,08,09,12,26,23.30
2018,08,09,12,27,23.20
2018,08,09,12,28,23.20
2018,08,09,12,29,23.10
2018,08,09,12,30,23.10
2018,08,09,12,31,23.00
2018,08,09,12,32,23.10
2018,08,09,12,33,23.10
2018,08,09,12,34,23.20
2018,08,09,12,35,23.30
2018,08,09,12,36,23.40
2018,08,09,12,37,23.40
2018,08,09,12,38,23.30
2018,08,09,12,39,23.30
2018,08,09,12,40,23.30
2018,08,09,12,41,23.30
2018,08,09,12,42,23.20
2018,08,09,12,43,23.20
2018,08,09,12,44,23.10
2018,08,09,12,45,23.10
2018,08,09,12,46,23.00
2018,08,09,12,47,22.90
2018,08,09,12,48,22.90
2018,08,09,12,49,22.90
2018,08,09,12,50,22.90
2018,08,09,12,51,22.90
2018,08,09,12,52,23.00
2018,08,09,12,53,23.00
2018,08,09,12,54,23.00
2018,08,09,12,55,23.00
2018,08,09,12,56,23.10
2018,08,09,12,57,23.10
2018,08,09,12,58,23.10
2018,08,09,12,59,23.10
2018,08,09,13,00,23.10
2018,08,09,13,01,23.10
2018,08,09,13,02,23.10
2018,08,09,13,03,23.20
2018,08,09,13,04,23.30
2018,08,09,13,05,23.30
2018,08,09,13,06,23.30
2018,08,09,13,07,23.30
2018,08,09,13,08,23.40
2018,08,09,13,09,23.40
2018,08,09,13,10,23.40
2018,08,09,13,11,23.30
2018,08,09,13,12,23.20
2018,08,09,13,13,23.10
2018,08,09,13,14,23.10
2018,08,09,13,15,23.00
2018,08,09,13,16,22.90
2018,08,09,13,17,22.90
2018,08,09,13,18,22.80
2018,08,09,13,19,22.80
2018,08,09,13,20,22.80
2018,08,09,13,21,22.90
2018,08,09,13,22,23.00
2018,08,09,13,23,23.10
2018,08,09,13,24,23.10
2018,08,09,13,25,23.00
2018,08,09,13,26,22.90
2018,08,09,13,27,22.80
2018,08,09,13,28,22.80
2018,08,09,13,29,22.70
2018,08,09,13,30,22.70
2018,08,09,13,31,22.70
2018,08,09,13,32,22.70
2018,08,09,13,33,22.60
2018,08,09,13,34,22.60
2018,08,09,13,35,22.60
2018,08,09,13,36,22.60
2018,08,09,13,37,22.60
2018,08,09,13,38,22.60
2018,08,09,13,39,22.60
2018,08,09,13,40,22.60
2018,08,09,13,41,22.50
2018,08,09,13,42,22.50
2018,08,09,13,43,22.50
2018,08,09,13,44,22.60
2018,08,09,13,45,22.60
2018,08,09,13,46,22.60
2018,08,09,13,47,22.60
2018,08,09,13,48,22.60
2018,08,09,13,49,22.70
2018,08,09,13,50,22.70
2018,08,09,13,51,22.70
2018,08,09,13,52,22.70
2018,08,09,13,53,22.70
2018,08,09,13,54,22.70
2018,08,09,13,55,22.70
2018,08,09,13,56,22.70
2018,08,09,13,57,22.80
2018,08,09,13,58,22.90
2018,08,09,13,59,23.00
2018,08,09,14,00,23.10
2018,08,09,14,01,23.20
2018,08,09,14,02,23.30
2018,08,09,14,03,23.30
2018,08,09,14,04,23.30
2018,08,09,14,05,23.30
2018,08,09,14,06,23.30
2018,08,09,14,07,23.30
2018,08,09,14,08,23.20
2018,08,09,14,09,23.20
2018,08,09,14,10,23.20
2018,08,09,14,11,23.20
2018,08,09,14,12,23.20
2018,08,09,14,13,23.20
2018,08,09,14,14,23.20
2018,08,09,14,15,23.20
2018,08,09,14,16,23.10
2018,08,09,14,17,23.10
2018,08,09,14,18,23.00
2018,08,09,14,19,23.00
2018,08,09,14,20,23.10
2018,08,09,14,21,23.00
2018,08,09,14,22,23.10
2018,08,09,14,23,23.10
2018,08,09,14,24,23.10
2018,08,09,14,25,23.10
2018,08,09,14,26,23.10
2018,08,09,14,27,23.20
2018,08,09,14,28,23.20
2018,08,09,14,29,23.20
2018,08,09,14,30,23.20
2018,08,09,14,31,23.20
2018,08,09,14,32,23.20
2018,08,09,14,33,23.20
2018,08,09,14,34,23.20
2018,08,09,14,35,23.10
2018,08,09,14,36,23.10
2018,08,09,14,37,23.10
2018,08,09,14,38,23.10
2018,08,09,14,39,23.10
2018,08,09,14,40,23.10
2018,08,09,14,41,23.20
2018,08,09,14,42,23.30
2018,08,09,14,43,23.40
2018,08,09,14,44,23.40
2018,08,09,14,45,23.50
2018,08,09,14,46,23.60
2018,08,09,14,47,23.70
2018,08,09,14,48,23.80
2018,08,09,14,49,23.80
2018,08,09,14,50,23.90
2018,08,09,14,51,24.00
2018,08,09,14,52,24.00
2018,08,09,14,53,24.10
2018,08,09,14,54,24.10
2018,08,09,14,55,24.20
2018,08,09,14,56,24.20
2018,08,09,14,57,24.20
2018,08,09,14,58,24.20
2018,08,09,14,59,24.20
2018,08,09,15,00,24.20
2018,08,09,15,01,24.20
2018,08,09,15,02,24.20
2018,08,09,15,03,24.10
2018,08,09,15,04,24.10
2018,08,09,15,05,24.10
2018,08,09,15,06,24.10
2018,08,09,15,07,24.10
2018,08,09,15,08,24.10
2018,08,09,15,09,24.00
2018,08,09,15,10,24.00
2018,08,09,15,11,24.00
2018,08,09,15,12,24.00
2018,08,09,15,13,24.10
2018,08,09,15,14,24.10
2018,08,09,15,15,24.10
2018,08,09,15,16,24.10
2018,08,09,15,17,24.10
2018,08,09,15,18,24.10
2018,08,09,15,19,24.20
2018,08,09,15,20,24.20
2018,08,09,15,21,24.20
2018,08,09,15,22,24.20
2018,08,09,15,23,24.20
2018,08,09,15,24,24.20
2018,08,09,15,25,24.20
2018,08,09,15,26,24.20
2018,08,09,15,27,24.20
2018,08,09,15,28,24.20
2018,08,09,15,29,24.20
2018,08,09,15,30,24.30
2018,08,09,15,31,24.20
2018,08,09,15,32,24.20
2018,08,09,15,33,24.10
2018,08,09,15,34,24.00
2018,08,09,15,35,24.00
2018,08,09,15,36,23.90
2018,08,09,15,37,23.90
2018,08,09,15,38,23.80
2018,08,09,15,39,23.80
2018,08,09,15,40,23.90
2018,08,09,15,41,23.90
2018,08,09,15,42,23.90
2018,08,09,15,43,24.00
2018,08,09,15,44,24.00
2018,08,09,15,45,24.00
2018,08,09,15,46,24.00
2018,08,09,15,47,24.00
2018,08,09,15,48,24.10
2018,08,09,15,49,24.10
2018,08,09,15,50,24.10
2018,08,09,15,51,24.20
2018,08,09,15,52,24.30
2018,08,09,15,53,24.30
2018,08,09,15,54,24.30
2018,08,09,15,55,24.40
2018,08,09,15,56,24.40
2018,08,09,15,57,24.40
2018,08,09,15,58,24.50
2018,08,09,15,59,24.50
2018,08,09,16,00,24.60
2018,08,09,16,01,24.60
2018,08,09,16,02,24.60
2018,08,09,16,03,24.60
2018,08,09,16,04,24.60
2018,08,09,16,05,24.60
2018,08,09,16,06,24.60
2018,08,09,16,07,24.50
2018,08,09,16,08,24.50
2018,08,09,16,09,24.50
2018,08,09,16,10,24.40
2018,08,09,16,11,24.40
2018,08,09,16,12,24.40
2018,08,09,16,13,24.40
2018,08,09,16,14,24.30
2018,08,09,16,15,24.30
2018,08,09,16,16,24.30
2018,08,09,16,17,24.40
2018,08,09,16,18,24.40
2018,08,09,16,19,24.40
2018,08,09,16,20,24.50
2018,08,09,16,21,24.60
2018,08,09,16,22,24.60
2018,08,09,16,23,24.60
2018,08,09,16,24,24.60
2018,08,09,16,25,24.50
2018,08,09,16,26,24.50
2018,08,09,16,27,24.50
2018,08,09,16,28,24.50
2018,08,09,16,29,24.40
2018,08,09,16,30,24.40
2018,08,09,16,31,24.40
2018,08,09,16,32,24.50
2018,08,09,16,33,24.50
2018,08,09,16,34,24.50
2018,08,09,16,35,24.50
2018,08,09,16,36,24.50
2018,08,09,16,37,24.60
2018,08,09,16,38,24.60
2018,08,09,16,39,24.60
2018,08,09,16,40,24.60
2018,08,09,16,41,24.60
2018,08,09,16,42,24.60
2018,08,09,16,43,24.50
2018,08,09,16,44,24.50
2018,08,09,16,45,24.50
2018,08,09,16,46,24.50
2018,08,09,16,47,24.60
2018,08,09,16,48,24.60
2018,08,09,16,49,24.70
2018,08,09,16,50,24.70
2018,08,09,16,51,24.70
2018,08,09,16,52,24.70
2018,08,09,16,53,24.70
2018,08,09,16,54,24.70
2018,08,09,16,55,24.70
2018,08,09,16,56,24.70
2018,08,09,16,57,24.70
2018,08,09,16,58,24.70
2018,08,09,16,59,24.70
2018,08,09,17,00,24.60
2018,08,09,17,01,24.60
2018,08,09,17,02,24.60
2018,08,09,17,03,24.60
2018,08,09,17,04,24.60
2018,08,09,17,05,24.70
2018,08,09,17,06,24.70
2018,08,09,17,07,24.70
2018,08,09,17,08,24.70
2018,08,09,17,09,24.70
2018,08,09,17,10,24.60
2018,08,09,17,11,24.60
2018,08,09,17,12,24.50
2018,08,09,17,13,24.50
2018,08,09,17,14,24.40
2018,08,09,17,15,24.50
2018,08,09,17,16,24.50
2018,08,09,17,17,24.50
2018,08,09,17,18,24.60
2018,08,09,17,19,24.60